Location: Stigler
(35.2540°N, 95.1230°W)
Time: 23:18:59
(UTC-05:00)

Daily predictions for brighter satellites

Satellite Brightness Start Highest point End
(mag) Time Altitude Azimuth Time Altitude Azimuth Time Altitude Azimuth
BREEZE-M DEB (TANK) 3.4 20:01:45 10° SW 20:04:49 80° SE 20:13:50 10° NE
Meteor 2-4 Rocket 4.1 20:06:06 10° N 20:12:02 80° W 20:17:57 10° S
Cosmos 2369 4.0 20:08:35 10° SSW 20:14:15 76° WNW 20:19:58 10° NNE
RESURS DK-1 4.3 20:12:47 10° NNE 20:15:10 15° ENE 20:17:31 10° E
Resurs 01 Rocket 1.6 20:11:32 10° SSE 20:15:56 70° ENE 20:20:22 10° N
Cosmos 1461 2.8 20:13:35 10° NNW 20:17:36 82° WSW 20:21:30 10° SSE
H-2A R/B 4.1 20:14:37 10° ESE 20:17:41 23° ENE 20:20:47 10° NNE
Cosmos 1656 3.7 20:13:24 10° S 20:18:57 64° ESE 20:24:28 10° NNE
NOSS 3-4 (A) 4.0 20:11:52 10° NNW 20:19:00 81° WSW 20:26:32 10° SSE
NOSS 3-4 (C) 4.0 20:11:59 10° NNW 20:19:08 82° WSW 20:26:40 10° SSE
Meteor 2-16 Rocket 4.5 20:13:14 10° S 20:19:18 88° ESE 20:25:25 10° N
FENGYUN 3A 4.3 20:14:54 10° SE 20:19:44 36° ENE 20:24:36 10° N
CZ-4B DEB 3.5 20:19:39 10° SE 20:22:41 36° ENE 20:25:44 10° N
Lacrosse 5 2.6 20:33:32 10° NNW 20:38:14 37° NE 20:41:56 15° ESE
Cosmos 1500 3.6 20:35:16 10° SSE 20:38:46 39° E 20:42:17 10° NNE
Iridium 4 Rocket 3.7 20:34:47 10° NNE 20:39:14 38° E 20:43:21 10° SSE
Spot 2 Rocket 4.0 20:35:43 10° S 20:40:45 63° WSW 20:45:47 10° NNW
EO 1 Delta rocket 4.1 20:37:03 10° NNE 20:41:59 68° E 20:47:57 10° S
Cosmos 1975 2.8 20:38:15 10° S 20:42:20 78° E 20:46:27 10° N
Cosmos 2227 Rocket 2.5 20:37:18 10° NNW 20:42:56 69° WSW 20:48:31 10° S
Cosmos 2322 Rocket 3.7 20:43:34 15° E 20:43:34 15° E 20:46:29 10° ENE
CZ-2D R/B 3.4 20:39:53 10° SSE 20:43:38 52° ENE 20:47:26 10° N
OTV 4 2.2 20:43:11 10° W 20:45:37 23° SSW 20:47:34 13° SSE
Cosmos 1340 4.5 20:45:04 10° NE 20:47:19 15° ENE 20:47:32 15° ENE
Lacrosse 5 rocket 1.8 20:43:56 10° NW 20:47:29 48° SW 20:50:50 11° SSE
Cosmos 2084 3.4 20:44:36 10° NNW 20:48:41 65° ENE 20:51:53 17° SE
Envisat 4.4 20:49:39 17° E 20:51:28 20° ENE 20:55:05 10° NNE
Cosmos 2173 Rocket 4.4 20:48:19 10° SSE 20:54:16 43° E 21:00:11 10° NNE
Cosmos 1937 Rocket 4.0 20:49:48 10° N 20:54:48 41° ENE 20:58:05 20° SE
H-2A R/B 4.1 20:55:01 11° ENE 20:55:01 11° ENE 20:56:11 10° NE
USA 186 1.6 20:53:34 20° SSE 20:55:23 53° ENE 20:58:10 10° N
Cosmos 2297 Rocket 2.4 20:51:59 10° NNW 20:57:38 73° WSW 21:03:15 10° SSE
Cosmos 1626 Rocket 3.6 20:55:42 10° N 21:00:06 84° W 21:04:25 10° S
Cosmos 220 Rocket 4.3 20:57:12 10° NNW 21:01:22 65° WSW 21:05:32 10° S
Cosmos 2360 4.4 20:57:27 10° S 21:02:51 45° ESE 21:08:16 10° NE
ALOS 2.4 20:58:14 10° S 21:02:54 78° WSW 21:07:35 10° NNW
CZ-4 DEB 4.0 21:03:21 24° ENE 21:03:21 24° ENE 21:05:43 10° NNE
Cosmos 2298 Rocket 4.0 20:58:07 10° NNW 21:03:27 80° ENE 21:08:05 14° SSE
Cosmos 1515 3.6 21:02:47 10° N 21:06:39 86° E 21:09:45 15° S
OAO 2 Rocket 3.2 21:05:03 10° W 21:10:02 83° S 21:12:34 30° ESE
Cosmos 1602 Rocket 4.0 21:06:23 10° NNW 21:10:46 62° W 21:15:06 10° S
ERS-1 Rocket 3.5 21:08:47 27° ESE 21:10:49 39° ENE 21:15:28 10° N
Cosmos 2100 Rocket 3.9 21:06:36 10° S 21:12:49 69° E 21:19:01 10° NNE
BREEZE-M DEB (TANK) 4.1 21:15:13 10° N 21:17:01 16° NE 21:17:24 16° NE
Tiangong 1 1.5 21:18:30 10° NW 21:21:31 47° NNE 21:21:38 46° NNE
Cosmos 1743 2.6 21:20:18 17° S 21:23:16 82° E 21:27:11 10° N
Cosmos 1763 Rocket 3.3 21:18:14 10° S 21:23:19 78° ESE 21:28:24 10° NNE
Cosmos 1939 Rocket 3.4 21:23:17 40° E 21:23:29 40° ENE 21:27:24 10° N
Cosmos 1697 Rocket 3.9 21:22:21 10° SW 21:27:42 43° WNW 21:33:04 10° N
Cosmos 2150 Rocket 4.2 21:23:12 10° NNW 21:28:19 68° WSW 21:31:50 20° S
Cosmos 2061 Rocket 3.9 21:23:04 10° S 21:29:22 85° E 21:35:39 10° N
Cosmos 1459 Rocket 4.0 21:30:05 10° S 21:36:08 81° W 21:42:15 10° N
Cosmos 1898 Rocket 4.2 21:33:18 10° NNW 21:38:24 50° WSW 21:42:03 18° S
Cosmos 1606 Rocket 3.4 21:38:26 36° S 21:40:12 89° E 21:44:39 10° N
Cosmos 2058 Rocket 3.4 21:40:59 48° ENE 21:40:59 48° ENE 21:44:43 10° NNE
SL-16 R/B 2.3 21:41:43 49° ESE 21:41:43 49° ESE 21:47:07 10° NNE
Cosmos 1725 Rocket 4.1 21:42:59 45° SE 21:44:20 53° E 21:50:21 10° NNE
Cosmos 1125 Rocket 4.3 21:39:56 10° N 21:44:17 33° ENE 21:44:17 33° ENE
Cosmos 2098 Rocket 3.9 21:43:33 28° SSE 21:47:14 66° E 21:52:54 10° NNE
Cosmos 841 Rocket 3.7 21:43:26 10° SSW 21:48:38 69° WNW 21:53:51 10° NNE
Cosmos 1980 Rocket 3.3 21:46:45 10° SW 21:52:10 45° WNW 21:57:38 10° N
ASTEX 1 3.6 21:47:38 10° NNE 21:51:52 52° ENE 21:51:52 52° ENE
RESURS DK-1 3.4 21:49:29 10° NW 21:53:24 41° WSW 21:54:07 37° SW
DELTA 2 R/B (1) 4.2 21:49:23 10° W 21:54:37 42° SSW 21:55:21 40° S
CZ-3 Stage 3 4.4 21:04:14 10° W 22:02:16 53° SSW 22:05:23 38° SSE
Cosmos 1726 Rocket 4.0 22:01:46 51° WSW 22:02:27 59° W 22:06:48 10° N
Cosmos 1666 4.3 22:04:42 30° N 22:04:42 30° N 22:06:45 10° N
Milstar 3 Cent rocket 4.2 21:52:43 10° W 22:14:25 57° SSW 22:18:32 43° SSE
Cosmos 2263 Rocket 3.4 22:14:38 10° N 22:18:16 30° NNE 22:18:16 30° NNE
Lacrosse 5 3.2 22:16:41 10° WNW 22:21:05 31° WSW 22:21:09 31° WSW
SPOT 5 3.5 22:27:03 53° NNW 22:27:03 53° NNW 22:30:43 10° NNW
Cosmos 2322 Rocket 2.5 22:25:05 41° SW 22:26:55 61° WNW 22:32:30 10° NNE
Envisat 3.9 22:29:51 41° WSW 22:30:08 41° W 22:34:56 10° NNW
H-2A R/B 3.7 22:32:10 30° NW 22:32:10 30° NW 22:34:31 10° NNW
Terra 4.3 22:42:37 14° NNE 22:42:37 14° NNE 22:43:24 10° NNE
H-2A R/B 4.1 23:06:08 20° N 23:06:08 20° N 23:07:39 10° N
USA 215 4.4 23:24:24 35° NNE 23:24:24 35° NNE 23:29:13 10° NNW
SL-16 R/B 4.4 23:23:20 16° W 23:26:02 21° WNW 23:30:17 10° N
Cosmos 2360 Rocket 4.4 23:40:15 19° N 23:40:15 19° N 23:41:55 10° N
